Location: Newark
(51.0500°N, 12.4500°E)
Time: 01:17:48
(UTC+00:00)

Vanguard 1 - Pass Details

Date: 20 February 2020
Orbit: 649 x 3834 km, 34.2° (Epoch: 28 March)

Event Time Altitude Azimuth Distance (km) Brightness Sun altitude
Rises 09:59:45 0° 249° (WSW) 7,441 14.5 25.3°
Reaches altitude 10° 10:05:52 10° 243° (WSW) 6,001 14.2 25.6°
Maximum altitude 10:20:09 35° 186° (S) 3,041 14.1 26.4°
Drops below altitude 10° 10:28:45 10° 125° (SE) 3,613 13.8 26.8°
Sets 10:31:25 0° 115° (ESE) 4,262 13.9 26.9°
